Location: Newark
(36.0797°N, 3.9744°E)
Time: 05:02:18
(UTC+00:00)

Vanguard 2 - Pass Details

Date: 15 December 2019
Orbit: 553 x 2938 km, 32.9° (Epoch: 19 January)

Event Time Altitude Azimuth Distance (km) Brightness Sun altitude
Exits shadow 05:16:56 20° 274° (W) 4,938 11.0 -17.7°
Maximum altitude 05:30:10 54° 209° (SSW) 3,240 10.5 -15.1°
Drops below altitude 10° 05:44:26 10° 137° (SE) 4,826 12.6 -12.4°
Sets 05:47:47 0° 133° (SE) 5,557 13.3 -11.8°
